Location: ?????????
(55.7859°N, 38.5491°E)
Time: 06:02:00
(UTC+00:00)

Daily predictions for brighter satellites

Satellite Brightness Start Highest point End
(mag) Time Altitude Azimuth Time Altitude Azimuth Time Altitude Azimuth
CSL-04 Rocket 3.8 16:27:43 10° SE 16:33:10 61° ENE 16:38:35 10° NNW
Okean 2 4.3 16:32:55 10° NNW 16:36:55 54° W 16:40:54 10° S
Cosmos 1975 3.9 16:35:30 10° SSW 16:39:23 51° WNW 16:43:20 10° N
Cosmos 2233 Rocket 4.1 16:34:27 10° NNW 16:40:39 87° W 16:46:52 10° S
Cosmos 1302 Rocket 4.4 16:37:29 10° S 16:42:23 40° ESE 16:47:18 10° NE
Cosmos 2084 4.4 16:39:04 10° NW 16:42:31 33° NNE 16:46:02 10° E
NOSS 3-1 (C) 4.4 16:37:47 10° WNW 16:43:50 47° N 16:51:15 10° E
Cosmos 2263 Rocket 3.5 16:45:44 10° SE 16:49:17 18° E 16:52:52 10° ENE
Cosmos 1674 Rocket 3.5 16:46:30 10° N 16:50:50 66° ENE 16:55:07 10° SSE
IGS 5A 4.1 16:47:58 10° S 16:52:02 59° WSW 16:56:10 10° NNW
Meteor 2-10 4.2 16:47:47 10° SSW 16:52:51 76° WNW 16:58:06 10° NNE
USA 215 3.4 16:47:36 10° ENE 16:54:02 57° SSE 17:00:28 10° SW
MINOTAUR 4 R/B 3.8 16:50:53 10° NNE 16:54:19 75° ESE 16:57:44 10° S
Cosmos 2237 Rocket 3.9 16:49:56 10° NW 16:54:58 34° WSW 16:59:59 10° S
Cosmos 1733 Rocket 3.0 16:50:54 10° S 16:55:09 61° E 16:59:27 10° NNE
Cosmos 1378 Rocket 3.5 16:53:04 10° N 16:57:32 78° ENE 17:01:59 10° SSE
USA 281 3.2 16:51:06 10° NNE 16:57:43 80° ESE 17:04:19 10° SSW
CARTOSAT-1 4.3 16:55:21 10° SE 16:59:15 35° ENE 17:03:10 10° N
Geosat 4.2 16:55:34 10° SE 17:00:29 57° NE 17:05:26 10° NNW
Cosmos 1025 Rocket 4.0 16:57:23 10° N 17:01:11 29° ENE 17:04:25 13° ESE
Cosmos 1726 3.1 16:59:45 10° SSW 17:03:10 49° WNW 17:06:38 10° N
Cosmos 1766 3.1 17:03:22 10° S 17:07:10 83° E 17:11:00 10° NNE
Meteor 2-5 Rocket 3.8 17:01:29 10° NNW 17:07:22 71° ENE 17:13:16 10° SSE
SL-4 R/B 3.0 17:05:18 10° SW 17:09:33 36° SSE 17:13:00 14° E
Cosmos 2034 Rocket 4.3 17:04:09 10° N 17:10:07 47° ENE 17:16:00 10° SE
Meteor 1-12 Rocket 4.3 17:08:46 10° S 17:14:21 56° E 17:19:54 10° NNE
GEOS 3 Rocket 4.1 17:09:34 10° NE 17:14:40 41° SE 17:19:45 10° SSW
Resurs 1-3 4.0 17:10:54 10° S 17:15:15 65° WSW 17:19:37 10° NNW
Cosmos 1503 Rocket 4.2 17:10:06 10° NNW 17:15:20 59° ENE 17:19:49 14° SE
SJ 16-02 1.3 17:11:41 10° NNW 17:16:07 74° ENE 17:20:07 12° SSE
Cosmos 1992 Rocket 4.5 17:12:05 10° S 17:16:50 37° ESE 17:21:37 10° NE
ATLAS 2AS CENTAUR R/B 4.0 17:12:12 10° SSE 17:17:01 18° ESE 17:21:46 10° ENE
Resurs 01 Rocket 1.6 17:13:56 10° SSE 17:18:19 71° ENE 17:22:44 10° NNW
SPOT 5 3.8 17:20:42 17° ESE 17:23:51 34° ENE 17:28:24 10° N
Cosmos 1486 Rocket 4.1 17:19:54 10° NNW 17:25:16 85° WSW 17:30:25 11° SSE
Cosmos 1943 3.3 17:20:19 10° NNW 17:25:56 65° NE 17:30:14 17° SE
Cosmos 1603 3.9 17:24:25 10° NNW 17:30:07 59° NE 17:34:11 19° ESE
Meteor 2-15 4.5 17:24:32 10° NNW 17:30:44 90° ENE 17:36:51 10° S
Cosmos 1908 Rocket 3.7 17:26:27 10° S 17:30:47 52° E 17:35:07 10° NNE
Cosmos 1867 4.1 17:25:23 10° WSW 17:30:48 62° NW 17:36:16 10° NE
BREEZE-M DEB (TANK) 3.9 17:24:46 10° W 17:31:50 47° SSW 17:34:45 19° SE
NOSS 2-1 (C) 3.6 17:31:00 10° S 17:33:45 27° SE 17:33:54 27° ESE
NOSS 3-4 (A) 3.3 17:28:47 10° SW 17:34:25 66° SE 17:40:41 10° NE
NOSS 3-4 (C) 3.3 17:28:54 10° SW 17:34:31 66° SE 17:40:47 10° NE
IRS-1C Rocket 4.3 17:29:20 10° SSE 17:34:36 75° WSW 17:39:56 10° NNW
Meteor 2-8 Rocket 4.5 17:29:11 10° NNW 17:35:23 88° E 17:41:34 10° S
SPOT 3 Rocket 4.1 17:34:17 20° ESE 17:37:32 42° ENE 17:42:26 10° N
ATLAS 3B R/B 3.2 17:30:48 10° NW 17:38:12 64° NNE 17:44:04 19° ESE
NOSS 2-1 (D) 3.5 17:35:40 10° SSW 17:38:36 30° SE 17:39:01 29° ESE
Cosmos 2297 Rocket 2.7 17:33:04 10° SW 17:38:42 64° NW 17:44:21 10° NNE
Meteor 2-15 Rocket 4.4 17:34:00 10° NNW 17:40:12 83° ENE 17:46:20 10° SSE
Cosmos 2344 4.1 17:33:19 10° WNW 17:41:08 67° NNE 17:49:12 18° ESE
Cosmos 1271 Rocket 3.3 17:37:49 10° SSW 17:41:29 56° WNW 17:45:09 10° N
MOS 1 4.3 17:35:49 10° SSE 17:41:32 87° ENE 17:47:18 10° NNW
Cosmos 2346 Rocket 4.4 17:35:47 10° S 17:41:57 77° E 17:48:14 10° NNE
BREEZE M DEB (TANK) 3.4 17:40:19 10° WSW 17:42:09 21° S 17:42:18 21° S
Okean O Rocket 4.0 17:38:43 10° SW 17:42:15 23° W 17:45:48 10° NW
IRS-1A Rocket 4.3 17:37:12 13° SSE 17:42:33 78° ENE 17:48:21 10° NNW
ERS-1 Rocket 3.6 17:40:53 22° ESE 17:43:34 39° ENE 17:48:12 10° N
Meteor 1-22 Rocket 4.3 17:37:50 10° S 17:43:54 73° E 17:49:52 10° NNE
Cosmos 1975 Rocket 3.2 17:40:44 10° N 17:45:09 58° ENE 17:47:48 23° SSE
Cosmos 1777 Rocket 4.1 17:40:10 10° NNW 17:45:23 65° ENE 17:48:35 23° SE
Okean-O 3.6 17:41:42 10° S 17:45:58 48° W 17:50:18 10° NNW
CZ-4 R/B 4.2 17:44:28 10° SW 17:46:55 16° W 17:49:25 10° NW
Cosmos 2082 3.7 17:44:16 10° SSW 17:49:44 58° ESE 17:55:16 10° NE
H-2A R/B 2.8 17:47:22 25° SE 17:49:49 56° ENE 17:54:11 10° N
Cosmos 1833 Rocket 4.4 17:45:26 10° NNW 17:49:52 23° NNE 17:54:09 10° ENE
Cosmos 1464 Rocket 4.2 17:43:45 10° NNW 17:50:09 79° W 17:56:32 10° S
Lacrosse 5 rocket 1.3 17:46:11 10° WSW 17:50:25 86° NNW 17:53:09 20° ENE
ISS -1.1 17:49:39 10° SW 17:50:28 11° SW 17:51:18 10° SSW
RESURS DK-1 3.6 17:51:42 23° E 17:51:42 23° E 17:53:58 10° NE
Cosmos 1340 Rocket 2.6 17:47:11 10° NNW 17:51:06 85° ENE 17:53:23 24° SSE
Cosmos 2082 Rocket 4.4 17:48:06 10° NNW 17:51:55 18° N 17:55:44 10° NE
Cosmos 1300 Rocket 4.3 17:51:07 28° ESE 17:52:17 33° E 17:56:10 10° NNE
NOSS 3-1 (A) 4.4 17:46:07 10° WNW 17:52:24 51° NNE 17:58:44 15° E
USA 245 3.8 17:50:45 29° SE 17:52:32 50° ENE 17:57:16 10° N
NOSS 2-2 (E) 4.3 17:48:48 10° NW 17:52:44 49° NNE 17:55:47 22° E
Cosmos 1300 4.3 17:53:31 19° ENE 17:53:31 19° ENE 17:55:33 10° NE
Meteor 1-24 Rocket 4.3 17:48:57 10° NNW 17:54:53 65° W 18:00:51 10° S
Cosmos 2227 Rocket 2.5 17:49:57 10° SW 17:55:37 72° NW 18:01:19 10° NNE
Terra 2.4 17:55:32 27° ESE 17:57:27 39° ENE 18:01:52 10° N
Cosmos 2219 3.2 17:52:26 10° SW 17:58:04 85° NW 18:03:45 10° NE
Aureole 3 Rocket 4.1 17:56:30 10° NNE 17:58:34 18° ENE 17:58:34 18° ENE
BlueWalker 3 2.4 17:57:19 10° SW 18:00:59 40° SSE 18:01:30 37° SE
SME Rocket 4.4 17:57:10 23° ESE 18:01:03 46° ENE 18:05:48 10° N
CZ-4C R/B 3.6 17:54:34 10° NW 18:01:16 49° SW 18:08:04 15° SSE
Meteor 2-19 Rocket 4.4 17:55:37 10° S 18:01:38 62° E 18:07:38 10° NNE
SPOT 1/Viking Rocket 4.4 17:56:38 10° S 18:01:40 50° W 18:06:47 10° NNW
ADEOS Rocket 3.6 17:59:48 24° SE 18:04:05 58° ENE 18:11:23 10° NNW
Cosmos 1782 Rocket 3.5 18:02:16 20° S 18:05:12 62° E 18:09:32 10° NNE
Cosmos 1470 3.5 18:01:51 10° SSW 18:05:41 55° WNW 18:09:32 10° N
MetOp-B 4.1 18:02:13 20° SSE 18:06:04 88° WSW 18:11:29 10° NNW
Spot 2 4.4 18:05:24 30° SE 18:07:41 64° ENE 18:12:18 10° NNW
Ariane Rocket 2.9 18:06:08 25° SSE 18:09:10 84° ENE 18:14:16 10° NNW
SL-16 R/B 3.9 18:04:45 10° NW 18:09:33 29° WSW 18:14:19 10° SSW
Meteor 1-21 Rocket 4.4 18:06:42 10° N 18:12:36 62° ENE 18:15:31 30° SE
Cosmos 1354 Rocket 4.2 18:07:34 10° NNW 18:12:51 73° WSW 18:15:55 26° SSE
Cosmos 1908 3.0 18:13:53 24° S 18:16:05 88° ESE 18:19:52 10° NNE
ARIANE 5 R/B 3.9 18:16:15 25° ENE 18:17:05 26° ENE 18:20:47 10° N
Aureole 1 Rocket 2.7 18:13:19 10° NNW 18:17:46 87° WSW 18:18:43 49° SSE
Spot 2 Rocket 3.5 18:17:20 34° SE 18:19:30 68° ENE 18:24:35 10° NNW
Landsat 5 3.8 18:16:27 10° N 18:20:19 61° WNW 18:24:17 10° SSW
Cosmos 1898 Rocket 4.5 18:15:25 10° NNW 18:20:21 35° NE 18:22:19 27° E
Cosmos 1758 3.1 18:18:18 27° S 18:20:24 86° E 18:24:20 10° NNE
Cosmos 2084 3.0 18:18:23 10° NW 18:22:12 87° NE 18:22:57 57° ESE
Cosmos 1816 Rocket 4.4 18:23:39 10° S 18:29:47 89° WNW 18:35:58 10° NNE
deb Chang Zheng 4 3.2 18:29:24 60° ESE 18:29:54 69° ENE 18:33:44 10° NNW
Cosmos 1634 Rocket 4.0 18:24:14 10° N 18:30:36 81° ENE 18:33:54 31° SSE
NOSS 2-1 (E) 4.4 18:28:52 10° SW 18:30:15 24° SW 18:30:15 24° SW
Cosmos 2263 Rocket 2.0 18:26:48 10° SSW 18:32:21 78° ESE 18:37:57 10° NE
Timation 2 Rocket 4.2 18:30:37 27° S 18:33:37 46° ESE 18:39:45 10° NE
NOSS 3-1 (C) 3.9 18:28:45 10° NW 18:35:34 78° NE 18:39:44 32° ESE
Cosmos 1825 3.4 18:34:01 10° N 18:36:43 27° NE 18:36:43 27° NE
USA 215 3.2 18:30:48 10° ENE 18:37:23 88° NNW 18:43:58 10° W
ATLAS CENTAUR R/B 3.7 18:24:42 10° WSW 18:37:48 84° N 18:42:32 19° ENE
ASTEX 1 4.2 18:37:27 33° E 18:37:57 33° ENE 18:42:19 10° N
Cosmos 1892 3.3 18:34:52 10° N 18:38:01 40° NE 18:38:01 40° NE
Cosmos 1025 Rocket 4.0 18:34:50 10° NNW 18:38:55 42° W 18:41:17 22° SSW
Cosmos 1844 Rocket 4.0 18:40:46 22° ENE 18:40:46 22° ENE 18:43:31 10° NE
Cosmos 2151 Rocket 4.3 18:41:37 36° ENE 18:41:37 36° ENE 18:45:14 10° NNE
Cosmos 1328 3.7 18:37:39 10° N 18:41:39 67° ENE 18:41:48 66° E
CZ-4C R/B 3.7 18:40:52 10° NNE 18:42:49 37° N 18:42:49 37° N
Cosmos 1703 4.1 18:40:15 10° NNW 18:43:56 44° W 18:45:11 32° SW
H-2A R/B 3.3 18:42:01 10° NNE 18:44:37 26° ENE 18:44:37 26° ENE
Helios 1A Rocket 4.5 18:46:50 23° NE 18:46:50 23° NE 18:49:47 10° N
NOSS 2-2 (C) 3.8 18:42:40 10° NW 18:46:48 71° NE 18:48:04 49° ESE
Cosmos 371 Rocket 4.2 18:42:56 10° NNW 18:47:26 36° NE 18:48:23 33° ENE
SL-4 R/B 2.5 18:43:58 10° WSW 18:48:15 50° S 18:48:15 50° S
Cosmos 1953 2.5 18:49:18 57° ENE 18:49:18 57° ENE 18:52:53 10° NNE
Meteor 2-10 Rocket 3.3 18:49:50 53° SSE 18:50:50 66° E 18:55:49 10° NNE
Cosmos 1408 2.7 18:48:58 10° NNW 18:51:53 62° NNW 18:51:53 62° NNW
GEOS 3 Rocket 4.0 18:47:34 10° NE 18:52:56 69° NW 18:58:18 10° WSW
SJ 16-02 3.7 18:51:02 10° NW 18:54:05 19° W 18:57:01 10° SW
Resurs 01 Rocket 4.0 18:52:07 10° SW 18:55:17 19° W 18:58:29 10° NW
Meteor 1-16 Rocket 4.0 18:53:57 35° S 18:56:25 84° ESE 19:01:54 10° NNE
SPOT 5 3.6 18:59:53 32° SSW 19:01:45 49° W 19:06:41 10° NNW
Okean 1 Rocket 4.4 19:03:31 28° NE 19:03:31 28° NE 19:06:08 10° NNE
Cosmos 2142 Rocket 4.4 18:58:19 10° NNW 19:04:30 87° E 19:06:28 47° SSE
Okean 2 Rocket 3.2 19:06:20 58° ENE 19:06:20 58° ENE 19:10:13 10° NNE
ATLAS 2AS CENTAUR R/B 2.8 18:59:17 10° SSW 19:06:44 60° SE 19:13:52 10° NE
Cosmos 2227 4.1 19:06:10 27° SSW 19:09:25 79° ESE 19:15:12 10° NE
NOSS 2-2 (D) 3.7 19:06:19 10° NW 19:10:32 90° SSW 19:11:06 71° SE
Tsikada Rocket 4.3 19:09:33 18° SSW 19:14:09 66° WNW 19:20:18 10° N
Meteor 1-11 4.1 19:09:14 10° NNW 19:14:55 87° ENE 19:16:02 60° SSE
Meteor 2-14 Rocket 4.3 19:14:37 45° S 19:16:42 86° ESE 19:22:55 10° NNE
SPOT 3 Rocket 4.5 19:14:54 29° SW 19:16:58 42° W 19:21:57 10° NNW
Cosmos 1455 4.3 19:19:31 17° NE 19:19:31 17° NE 19:20:38 10° NNE
USA 229 DEB 4.1 19:10:57 10° NW 19:17:58 64° NNE 19:21:28 34° E
USA 229 4.1 19:11:02 10° NW 19:18:03 64° NNE 19:21:34 34° E
ERS-1 Rocket 3.8 19:20:50 34° SW 19:22:21 43° W 19:27:09 10° NNW
Cosmos 2297 Rocket 4.5 19:19:15 10° W 19:23:50 24° NNW 19:28:26 10° NNE
H-2A R/B 4.5 19:23:43 20° SW 19:25:24 25° W 19:29:04 10° NW
NOSS 3-4 (A) 4.1 19:19:46 10° W 19:25:32 53° NNW 19:32:03 10° ENE
NOSS 3-4 (C) 4.1 19:19:53 10° W 19:25:38 54° NNW 19:32:09 10° ENE
Cosmos 1763 Rocket 4.4 19:28:03 33° ENE 19:28:03 33° ENE 19:31:14 10° NE
Cosmos 1300 3.6 19:28:07 46° WNW 19:28:07 46° WNW 19:31:30 10° N
RESURS DK-1 3.0 19:27:16 44° W 19:28:11 55° NW 19:32:17 10° NNE
ATLAS 3B R/B 3.2 19:21:44 10° NW 19:29:07 59° SW 19:31:19 44° S
Lacrosse 5 rocket 2.0 19:25:18 10° W 19:28:29 51° WNW 19:28:29 51° WNW
Cosmos 1536 Rocket 4.1 19:25:24 10° NNW 19:29:40 51° W 19:29:51 51° WSW
Cosmos 2279 Rocket 4.2 19:23:37 10° NNW 19:29:47 64° W 19:31:46 43° SSW
Meteor 2-21 4.4 19:31:19 46° SSW 19:33:18 83° W 19:39:35 10° NNE
Cosmos 1833 Rocket 3.0 19:29:26 10° NNW 19:35:01 55° NE 19:35:50 51° E
Terra 2.8 19:34:16 35° WSW 19:35:07 38° W 19:39:35 10° NNW
Cosmos 2082 Rocket 3.4 19:32:42 10° NNW 19:37:47 33° NE 19:39:33 27° ENE
BlueWalker 3 4.3 19:35:26 10° W 19:36:16 16° WSW 19:36:16 16° WSW
Cosmos 2227 Rocket 4.3 19:35:55 10° W 19:40:38 26° NNW 19:45:21 10° NNE
NOSS 2-2 (E) 4.3 19:38:49 10° WNW 19:42:57 53° WSW 19:42:57 53° WSW
NOSS 3-1 (A) 3.8 19:37:00 10° NW 19:43:57 87° SW 19:46:09 53° SE
Cosmos 1633 4.5 19:46:20 10° NNW 19:48:02 27° NNW 19:48:02 27° NNW
ADEOS Rocket 4.2 19:46:44 28° SW 19:49:51 42° W 19:56:51 10° NNW
Cosmos 372 Rocket 3.9 19:46:03 10° NNW 19:51:01 82° N 19:51:01 82° N
Cosmos 2292 Rocket 4.3 19:51:58 71° SSE 19:52:37 80° E 19:59:56 10° NNE
Spot 4 4.2 19:53:11 55° NE 19:53:11 55° NE 19:57:33 10° N
ARIANE 5 R/B 3.2 19:53:45 53° WNW 19:53:45 53° WNW 19:57:40 10° NNW
Meteor 2-16 Rocket 4.3 19:52:29 68° SSW 19:53:22 89° WNW 19:59:31 10° NNE
Cosmos 1937 Rocket 3.4 19:48:53 10° NNW 19:53:59 81° W 19:53:59 81° W
Cosmos 2278 Rocket 4.5 19:58:03 11° ENE 19:58:03 11° ENE 19:58:34 10° ENE
Cosmos 2344 4.3 19:47:36 10° NW 19:55:48 59° SW 19:59:13 43° S
Cosmos 1400 Rocket 4.3 19:55:00 10° N 19:57:19 31° NNE 19:57:19 31° NNE
Cosmos 1898 Rocket 3.8 19:57:28 10° NNW 20:02:35 57° WSW 20:02:35 57° WSW
Cosmos 1892 Rocket 4.2 20:03:06 10° NNW 20:06:40 54° NNW 20:06:40 54° NNW
Cosmos 1844 3.7 20:10:24 76° ENE 20:10:24 76° ENE 20:15:45 10° NE
ALOS 2 3.6 20:11:51 43° NNE 20:11:51 43° NNE 20:15:07 10° N
Cosmos 1825 4.2 20:09:04 10° NNW 20:11:04 24° NW 20:11:04 24° NW
Cosmos 332 Rocket 4.2 20:08:17 10° NNW 20:12:19 59° N 20:12:19 59° N
ASTEX 1 4.1 20:16:54 45° W 20:16:54 45° W 20:21:31 10° NNW
Cosmos 2263 Rocket 3.8 20:11:49 10° W 20:16:50 33° NW 20:21:52 10° NNE
Cosmos 1553 Rocket 4.2 20:12:04 10° N 20:18:17 57° ENE 20:18:34 56° E
Cosmos 540 Rocket 4.1 20:21:23 49° NE 20:21:23 49° NE 20:25:08 10° NNE
USA 215 3.2 20:18:03 43° E 20:20:26 84° N 20:27:01 10° WNW
Helios 1A Rocket 4.4 20:22:45 34° NW 20:22:45 34° NW 20:25:11 10° NNW
H-2A R/B 3.2 20:17:49 10° N 20:21:36 40° NW 20:21:36 40° NW
Cosmos 1844 Rocket 2.7 20:22:21 77° WNW 20:22:23 77° NW 20:28:01 10° NNE
Nadezhda 4 Rocket 3.9 20:23:06 72° WSW 20:23:37 77° WNW 20:29:46 10° N
COSMOS 2406 3.5 20:18:14 10° NNW 20:23:51 56° NE 20:24:07 55° ENE
NOSS 3-1 (C) 4.5 20:19:36 10° NW 20:26:22 44° SW 20:27:07 43° SW
Cosmos 371 Rocket 4.2 20:23:18 10° NW 20:27:01 42° WNW 20:27:01 42° WNW
Cosmos 841 Rocket 4.4 20:34:43 40° NE 20:34:43 40° NE 20:38:11 10° NNE
Okean 1 Rocket 4.5 20:40:39 34° NW 20:40:39 34° NW 20:44:06 10° N
Cosmos 468 Rocket 4.4 20:44:12 60° NNW 20:44:12 60° NNW 20:48:41 10° NNE
Cosmos 1455 Rocket 4.3 20:51:25 39° N 20:51:25 39° N 20:54:22 10° N
Cosmos 1428 Rocket 4.4 20:52:07 77° W 20:52:17 78° WNW 20:58:34 10° N
ATLAS CENTAUR R/B 2.9 20:43:26 10° WNW 20:51:45 71° W 20:51:45 71° W
Cosmos 1092 Rocket 3.9 20:54:47 79° W 20:54:48 79° WNW 21:01:02 10° N
ATLAS 2AS CENTAUR R/B 3.2 20:50:20 10° WSW 20:57:49 63° NNW 21:04:57 10° NE
Lacrosse 4 Rocket 3.9 21:03:27 15° NE 21:03:27 15° NE 21:04:14 10° NE
MOS 1 Rocket 4.1 21:01:46 51° NNE 21:01:46 51° NNE 21:05:32 10° N
Cosmos 1125 Rocket 3.9 20:58:30 10° NNW 21:02:51 59° N 21:02:51 59° N
Cosmos 1763 Rocket 4.4 21:07:59 40° WNW 21:08:18 41° NW 21:13:07 10° NNE
USA 229 DEB 4.0 21:01:59 10° NW 21:08:53 59° WSW 21:08:53 59° WSW
USA 229 4.0 21:02:05 10° NW 21:08:59 59° WSW 21:08:59 59° WSW
Cosmos 2026 Rocket 4.1 21:14:13 65° W 21:14:31 66° WNW 21:20:55 10° N
Cosmos 1833 Rocket 3.8 21:13:37 10° NW 21:17:31 34° W 21:17:31 34° W
Meteor 2-3 Rocket 4.0 21:14:48 10° N 21:20:04 61° NE 21:20:04 61° NE
Cosmos 2082 Rocket 2.5 21:16:47 10° NW 21:21:23 59° NW 21:21:23 59° NW
S3M 3.9 21:18:22 10° NNW 21:24:20 84° NNW 21:24:20 84° NNW
Cosmos 1943 Rocket 3.8 21:28:31 24° E 21:28:31 24° E 21:31:40 10° NE
Cosmos 2278 Rocket 2.7 21:39:52 52° ENE 21:39:52 52° ENE 21:44:18 10° NE
SL-16 R/B 4.1 21:37:14 17° E 21:40:48 29° NE 21:46:04 10° N
Cosmos 1238 Rocket 4.3 21:41:05 48° WNW 21:41:05 48° WNW 21:46:13 10° N
Cosmos 2266 Rocket 3.9 21:46:36 74° ENE 21:46:36 74° ENE 21:52:19 10° NNE
Cosmos 883 Rocket 4.4 21:40:39 10° NNW 21:46:31 82° NNW 21:46:31 82° NNW
Cosmos 2228 4.4 21:52:13 36° N 21:52:13 36° N 21:54:55 10° N
Meteor 2-17 Rocket 4.5 21:56:56 72° WNW 21:56:56 72° WNW 22:02:55 10° N
MOS 1-B Rocket 4.3 21:58:34 53° WNW 21:58:34 53° WNW 22:03:45 10° NNW
Cosmos 2315 Rocket 3.9 21:53:15 10° NNW 21:59:14 79° WNW 21:59:14 79° WNW
ATLAS 5 CENTAUR R/B 4.0 22:05:17 14° ENE 22:05:17 14° ENE 22:06:02 10° ENE
Nimbus 7 Rocket 4.4 21:56:32 10° NNE 22:02:11 73° E 22:02:11 73° E
Cosmos 1570 Rocket 4.4 22:03:44 61° NNE 22:03:44 61° NNE 22:08:06 10° NNE
USA 215 3.6 22:05:21 50° W 22:05:21 50° W 22:10:12 10° WNW
Cosmos 1844 Rocket 4.5 22:03:56 16° WNW 22:07:10 27° NNW 22:11:53 10° NNE
COSMOS 2406 4.5 22:02:48 10° NW 22:06:10 30° WNW 22:06:10 30° WNW
Cosmos 1814 Rocket 4.5 22:12:18 56° NW 22:12:18 56° NW 22:17:08 10° NNE
Lacrosse 5 3.9 22:15:44 18° E 22:15:44 18° E 22:17:17 10° ENE
ADEOS II 4.2 22:13:46 10° NE 22:17:06 17° E 22:18:07 16° E
Cosmos 2151 4.4 22:13:08 10° N 22:15:39 35° N 22:15:39 35° N
USA 81 4.2 22:17:31 10° N 22:22:12 69° NNE 22:22:12 69° NNE
SL-08 ROCKET BODY 4.3 22:38:43 79° WNW 22:38:43 79° WNW 22:44:46 10° N
Lacrosse 4 Rocket 2.8 22:39:33 36° N 22:39:33 36° N 22:42:47 10° NNE
Cosmos 1244 Rocket 4.4 22:39:21 68° SE 22:39:47 71° E 22:45:55 10° NNE
Cosmos 1867 3.7 22:39:01 10° NW 22:44:31 74° NE 22:44:55 70° ENE
Cosmos 1655 Rocket 4.2 22:45:30 54° W 22:45:51 55° WNW 22:52:02 10° N
Meteor 2-12 Rocket 4.3 22:47:00 79° SSE 22:47:20 84° E 22:53:26 10° NNE
ATLAS 2AS CENTAUR R/B 3.7 22:42:48 10° WNW 22:49:53 45° N 22:56:35 10° ENE
Cosmos 158 Rocket 4.3 22:55:35 54° E 22:55:35 54° E 22:59:52 10° NE
Cosmos 2369 Rocket 3.1 22:54:49 36° ESE 22:55:03 36° ESE 23:00:09 10° NE
Cosmos 2297 Rocket 4.3 22:51:18 10° NNW 22:56:00 26° NNE 23:00:40 10° E
ATLAS CENTAUR R/B 3.2 22:58:16 26° E 22:58:16 26° E 23:00:46 10° ENE
Resurs 1-4 Rocket 2.5 22:57:39 10° NNE 23:02:53 52° E 23:03:18 51° ESE
IDEFIX/ARIANE 42P 3.4 22:58:46 10° NNE 23:03:39 39° E 23:04:20 38° ESE
NOSS 2-1 (C) 4.5 23:05:03 40° N 23:05:32 42° NNE 23:09:58 10° E
Cosmos 2082 Rocket 4.3 23:01:59 10° WNW 23:03:13 14° WNW 23:03:13 14° WNW
Cosmos 1833 4.1 23:02:18 10° NW 23:08:04 87° ENE 23:08:55 66° SE
Nadezhda 2 Rocket 4.3 23:08:41 71° SW 23:09:17 78° WNW 23:15:30 10° N
NOSS 3-4 (A) 3.9 23:02:51 10° NW 23:09:21 70° NNE 23:16:51 10° ESE
NOSS 3-4 (C) 3.9 23:02:57 10° NW 23:09:27 70° NNE 23:16:57 10° ESE
Cosmos 773 Rocket 3.9 23:09:36 78° ESE 23:09:36 78° ESE 23:14:53 10° NNE
Cosmos 1943 Rocket 2.1 23:10:01 74° W 23:10:20 77° NW 23:16:00 10° NNE
CZ-2D R/B 2.4 23:05:06 10° NNE 23:10:20 57° ESE 23:10:51 54° SE
NOSS 2-1 (D) 4.4 23:09:39 38° N 23:10:27 44° NNE 23:14:56 10° E
Cosmos 2227 Rocket 4.5 23:08:17 10° NNW 23:12:49 24° NNE 23:17:20 10° ENE
Cosmos 783 Rocket 4.5 23:15:23 75° SE 23:15:30 75° ESE 23:20:49 10° NNE
Cosmos 44 4.3 23:22:01 33° ESE 23:22:01 33° ESE 23:25:52 10° ENE
Cosmos 1242 Rocket 4.2 23:18:45 10° N 23:21:43 30° ENE 23:21:43 30° ENE
Meteor 1-20 Rocket 4.3 23:16:36 10° NNW 23:22:13 74° ENE 23:23:45 49° SE
Cosmos 2278 Rocket 3.2 23:21:41 32° WNW 23:23:08 38° NW 23:28:25 10° NNE
SL-16 R/B 2.4 23:22:18 54° S 23:23:51 83° WSW 23:30:11 10° NNW
Cosmos 1812 4.4 23:28:18 26° E 23:28:31 26° E 23:31:40 10° NNE
Cosmos 2058 Rocket 4.2 23:31:38 34° NW 23:31:38 34° NW 23:35:14 10° N
SL-08 R/B 4.5 23:30:41 58° SW 23:31:50 72° WNW 23:38:11 10° N
Cosmos 1666 3.6 23:28:24 10° N 23:31:08 45° N 23:31:08 45° N
BREEZE-M DEB (TANK) 3.9 23:32:51 50° SSW 23:33:20 51° S 23:48:55 10° ESE
Cosmos 1766 Rocket 3.8 23:29:27 10° N 23:33:56 67° ENE 23:34:18 63° ESE
AQUA 4.0 23:36:04 10° NNE 23:40:49 63° ESE 23:41:28 57° SE
Cosmos 2221 3.8 23:40:06 31° ESE 23:41:09 36° E 23:45:08 10° NNE
GEOS 3 Rocket 4.3 23:40:00 10° ESE 23:45:08 55° NNE 23:50:22 10° NW
Thor Agena Rocket 3.7 23:40:31 10° NNE 23:45:35 64° ESE 23:46:42 50° SSE
ATLAS 5 CENTAUR R/B 1.6 23:46:34 61° NNW 23:46:34 61° NNW 23:50:56 10° NE
Nadezhda 1 Rocket 4.2 23:42:22 10° NNW 23:48:21 51° W 23:49:09 48° WSW
EO 1 Delta rocket 3.8 23:52:39 54° SSE 23:53:45 88° ENE 23:59:02 10° N
